Location: Central Falls
(41.8900°N, 71.3929°W)
Time: 01:51:53
(UTC+00:00)

Altair - Pass Details

Date: 03 December 2023
Orbit: 1501 x 1682 km, 47.2° (Epoch: 26 February)

Event Time Altitude Azimuth Distance (km) Brightness Sun altitude
Rises 22:10:48 0° 284° (WNW) 4,641 11.0 -10.2°
Reaches altitude 10° 22:17:04 10° 253° (WSW) 3,648 11.1 -11.3°
Maximum altitude 22:19:15 11° 238° (WSW) 3,567 10.8 -11.7°
Drops below altitude 10° 22:21:27 10° 224° (SW) 3,650 10.5 -12.1°
Sets 22:27:48 0° 192° (SSW) 4,648 10.5 -13.2°
